Temp_Advection
nan nan nan nan nan nan nan nan nan nan nan nan nan nan nan nan nan nan nan nan nan nan nan nan nan nan nan nan nan nan nan nan nan nan nan nan nan nan nan nan nan nan nan nan nan nan nan
nan -0 -0 0 0 -0 0 0 0 -0 -0 0 0 -0 0 0 0 -0 0 0 0 0 -0 -0 0 0 0 -0 -0 -1 -0 0 0 -0 -0 -1 -1 -1 -1 -0 0 -0 0 -0 -0 0 nan
nan -0 -0 0 0 0 0 0 0 -0 -0 -0 0 0 -0 0 0 0 -0 0 0 0 -0 0 0 0 -0 -0 -0 0 0 -0 0 0 -0 -0 -0 -0 -0 -0 -0 -0 -0 -0 -0 -0 nan
nan -0 -0 -0 0 0 0 0 0 0 -0 -0 1 0 -0 0 0 -0 -0 0 0 -0 0 0 0 0 -0 -0 -0 0 0 0 0 -0 -0 0 1 -0 -1 -1 0 0 -0 -0 -0 0 nan
nan -0 0 -0 -0 0 0 0 0 0 -0 -0 0 0 0 0 0 -0 -0 0 0 0 0 0 0 -0 -0 0 -0 -0 0 0 -0 -0 -0 0 0 -1 -1 -0 0 0 0 -1 -0 -0 nan
nan -0 0 -0 -0 0 0 -0 -0 0 0 -0 0 0 0 -0 0 0 -0 -0 0 0 0 0 -0 -0 -0 -0 -0 0 -0 -0 -0 -0 0 -0 -0 -1 -1 -0 -1 -1 -1 -0 -0 0 nan
nan -0 0 -0 0 0 -0 -0 -0 0 0 -0 0 0 0 0 0 0 -0 0 0 -0 -0 -0 -0 -0 -0 0 -0 -0 -0 -0 -0 -0 -0 -1 -0 -2 -1 -1 -1 -1 -0 0 -0 0 nan
nan -0 -0 0 -0 -0 0 0 -0 -0 -0 0 0 0 0 0 0 0 -0 -0 -0 -0 0 0 0 0 0 0 -0 -0 0 -0 -0 -0 -1 0 -1 -2 -0 -1 -1 0 1 -0 0 0 nan
nan -0 -0 0 0 -0 -0 0 0 -0 -0 0 0 0 0 0 0 -0 -0 -0 0 0 0 -0 -0 0 0 -0 -0 -0 -0 -1 -0 0 -0 -0 -1 -0 -0 0 -0 0 -0 -0 1 0 nan
nan -0 -0 -0 -0 -0 -0 -0 0 0 -0 0 0 0 0 0 -0 -0 -0 0 1 1 -0 -0 -0 -0 -0 -0 -0 0 -0 -0 0 -0 -1 -1 -0 1 -0 0 -1 -0 -0 0 0 0 nan
nan -0 -0 -0 -0 0 -0 0 0 0 0 0 0 0 0 -0 -0 0 -0 0 1 0 -0 -0 -0 -0 -0 -1 -0 0 -0 -0 0 -1 -0 -1 0 -0 -1 -1 -1 0 0 0 0 -0 nan
nan 0 -0 -0 0 0 -0 0 -0 -0 0 0 0 0 0 0 0 -0 0 0 -0 0 -0 0 -0 -0 -0 -0 -0 -0 -0 -0 0 0 -0 0 -0 -1 -1 1 1 0 0 -0 0 -0 nan
nan -0 -0 -0 0 0 -0 -0 -0 0 0 0 0 0 0 0 -0 -0 0 -0 -0 -0 -0 0 -0 -0 0 -0 -0 -0 -0 0 0 0 -0 0 -1 -0 0 -0 0 1 -1 -0 -0 -0 nan
nan -0 -0 -0 0 -0 -0 -0 0 0 0 0 0 0 0 0 -0 0 1 -0 -1 -0 -0 0 -0 -0 -0 -0 -0 0 -0 -0 -0 -1 -0 -0 -0 -0 0 -0 -0 1 1 -0 -0 -0 nan
nan -0 -0 -0 0 0 -0 0 0 0 0 0 0 0 0 0 0 1 0 -0 -0 0 -0 -0 -0 -0 -0 -0 0 0 -1 -1 -0 -1 -0 -0 -0 0 1 0 -0 0 0 0 -0 0 nan
nan -1 -0 -0 0 0 -0 0 0 0 0 0 0 0 -0 -0 0 0 0 -0 0 -0 -0 -1 -0 -1 -1 -0 0 -1 -0 -1 -0 -1 -0 -1 -0 0 0 0 -0 -0 0 0 -0 -0 nan
nan -1 -1 -0 -0 0 -0 0 0 0 0 0 0 -0 -0 0 -0 -0 -0 -0 -0 -0 -1 -1 -0 -0 -0 -1 -0 -0 -0 -0 -1 -1 -0 -0 -0 -0 0 -0 -1 -0 0 -0 -0 -0 nan
nan -2 -1 -0 -0 -0 -0 0 0 0 0 0 0 -0 0 -0 -0 -0 -0 -0 -0 -0 -1 -1 -0 -0 -0 -0 -0 -0 -1 -0 -1 0 -0 -1 -0 -1 0 0 -0 -0 -1 -1 -0 0 nan
nan -1 -1 -1 -0 0 0 0 0 0 0 0 -0 -0 0 -0 -0 -0 -0 -0 -0 -0 -2 -0 -0 -0 -0 -0 -1 -1 -0 -0 0 -0 -0 -0 0 -1 -0 -0 0 0 -0 -0 0 0 nan
nan -1 -2 -1 -0 0 -0 0 0 0 0 0 -0 -0 -0 -1 -0 -0 -0 -0 -0 -1 -1 0 -0 -0 -0 -0 -0 -1 -0 0 0 -0 -0 0 -0 -0 -1 -0 -1 -0 -0 0 0 -0 nan
nan 0 -2 -1 -0 0 0 0 0 0 0 -0 -0 -0 0 -0 -0 -0 -0 -0 -0 0 0 0 0 -0 -1 -0 -0 -0 0 -0 -0 0 -0 -0 -0 0 0 0 0 -0 -0 0 -0 -1 nan
nan -1 -2 -1 -0 0 0 0 0 0 0 -0 -0 0 0 -0 -0 -0 -0 -0 -0 0 0 0 -0 -0 0 -0 -1 -0 -0 -1 -0 -0 -0 -0 0 0 -0 0 0 0 -0 -0 -1 -0 nan
nan -1 -2 -1 -0 0 0 0 0 0 0 -0 -0 -0 -0 -0 -0 -0 -0 0 0 0 0 -0 -1 -0 0 0 0 -0 -0 -0 -0 -0 -1 -0 0 0 0 -0 0 -0 0 -0 -0 -0 nan
nan -0 -1 -2 -1 -0 0 0 0 0 -0 -0 -0 0 -0 -0 0 0 -0 0 0 1 0 -0 -0 1 0 0 0 0 0 0 1 0 0 0 0 -0 -0 -0 -0 0 -0 -0 0 -0 nan
nan -1 -1 -2 -1 0 0 0 0 -0 -0 -0 -0 0 -0 -0 0 0 -0 -0 -0 0 0 0 -0 1 1 0 0 -0 -0 -0 -0 -0 1 1 -0 0 0 -0 -0 0 0 1 0 0 nan
nan -0 -1 -2 -1 0 0 0 0 -0 -0 -0 -0 -0 -0 -0 0 -0 -0 -0 0 0 -0 -0 0 1 0 0 0 -0 -0 -0 -0 -0 -0 0 0 -0 0 -1 -0 -0 -0 0 0 0 nan
nan -0 -1 -2 -1 -0 0 0 0 0 -0 -0 -0 -0 -0 -0 0 0 0 -0 -0 0 0 -0 -0 0 0 0 0 0 0 -0 -1 -1 -1 -0 -0 -1 -1 -0 -0 0 0 0 0 -0 nan
nan -0 -1 -1 -2 -1 0 0 0 -0 -0 -0 -0 -0 -0 -0 -0 0 0 0 -0 -0 -0 0 -0 -0 0 0 0 0 0 0 -0 -0 -0 -1 -0 -0 -0 -0 0 1 0 0 -0 0 nan
nan nan nan nan nan nan nan nan nan nan nan nan nan nan nan nan nan nan nan nan nan nan nan nan nan nan nan nan nan nan nan nan nan nan nan nan nan nan nan nan nan nan nan nan nan nan nan
Wind_Speed
14 15 16 19 18 16 17 18 15 13 12 11 9 7 5 6 8 10 10 9 9 12 13 12 12 15 15 15 16 6 3 4 4 17 22 21 20 22 20 23 20 20 17 17 16 14 14
15 16 17 19 16 16 16 16 18 17 14 13 11 8 7 6 7 9 10 10 10 10 13 11 12 15 14 15 13 19 17 8 4 8 21 23 17 24 19 24 25 15 22 18 16 15 13
16 15 16 17 18 15 16 13 18 17 15 15 14 12 11 9 9 9 10 11 11 10 10 11 11 13 13 20 10 9 19 24 27 9 21 25 28 15 20 19 24 25 13 15 18 17 14
16 15 17 17 17 16 17 16 16 17 16 15 15 15 12 11 11 11 10 10 12 11 10 10 12 12 10 15 23 19 11 7 17 20 13 21 23 23 13 19 19 21 17 17 18 14 13
16 18 19 19 17 16 17 17 16 16 18 16 16 16 15 13 14 14 15 12 14 14 12 11 11 10 8 9 22 23 23 15 6 15 17 12 20 11 20 12 13 17 16 22 17 15 13
18 19 21 19 18 17 17 17 17 16 19 18 17 16 14 13 15 15 13 16 14 15 14 12 12 6 15 10 12 17 21 20 11 14 12 15 15 10 12 13 20 16 19 12 18 12 11
20 19 19 18 18 17 16 16 17 16 17 17 18 15 15 14 17 17 14 15 8 7 25 12 12 9 3 16 6 12 12 17 13 12 12 24 12 19 28 17 16 18 18 14 13 7 6
20 19 15 17 17 16 15 16 15 14 14 15 16 15 14 14 16 18 13 20 18 8 5 26 9 24 6 8 7 14 13 19 16 16 20 16 23 24 15 19 19 20 16 16 12 6 6
18 19 16 19 18 17 15 16 15 14 13 14 14 15 14 14 16 20 19 24 29 22 3 10 30 19 15 15 8 14 21 26 14 15 18 23 17 18 18 22 22 15 17 15 9 5 6
21 21 20 18 20 19 16 16 14 14 12 13 13 13 13 12 13 14 14 26 19 25 2 6 10 13 20 11 11 22 24 23 8 20 19 19 21 23 18 21 23 18 11 9 8 1 5
24 23 23 20 20 19 18 16 15 14 12 11 13 13 13 13 7 7 9 11 23 16 4 11 10 8 14 21 5 23 21 23 15 11 6 14 13 17 20 24 26 11 12 9 3 5 6
22 25 25 21 20 21 19 17 15 15 13 12 13 13 14 15 15 14 7 7 16 2 7 9 9 13 14 23 12 14 16 17 9 8 17 12 7 20 18 24 20 15 14 8 4 1 7
25 24 25 23 20 22 19 18 17 15 14 12 13 13 15 15 10 12 16 19 3 6 4 5 4 8 16 12 19 10 17 21 8 7 7 10 15 5 17 16 3 16 15 3 5 4 6
24 26 22 22 22 21 19 19 19 16 14 14 15 14 14 17 17 12 34 3 7 4 5 3 6 14 9 15 14 13 15 17 18 13 11 8 5 11 13 20 9 16 14 4 5 6 5
19 23 24 23 20 19 19 19 17 15 14 14 13 12 16 18 18 25 18 5 4 4 8 7 14 9 9 17 8 13 17 19 12 18 4 9 4 7 12 5 11 4 6 2 3 1 3
29 23 23 24 21 20 19 19 16 15 12 12 12 10 14 11 22 32 2 4 4 6 6 18 9 11 12 19 5 14 15 16 12 17 9 12 4 6 6 8 4 10 10 4 2 5 5
33 17 24 23 20 19 17 17 15 15 12 11 10 4 5 14 31 14 3 5 5 13 16 16 9 11 11 16 7 14 15 8 20 16 14 3 7 2 13 6 12 10 6 4 2 3 3
30 23 23 21 20 19 16 15 15 13 12 10 6 3 12 30 6 5 4 5 5 7 26 14 10 8 14 15 11 5 15 8 27 13 9 8 3 6 3 3 9 10 11 12 6 5 1
28 27 15 22 19 18 15 14 14 14 13 8 5 5 20 37 5 8 5 8 9 13 20 14 12 9 8 14 8 16 13 17 26 16 11 11 7 8 5 2 3 7 11 17 10 1 10
22 29 21 21 19 17 14 13 14 15 14 12 5 3 8 19 14 3 8 8 7 21 18 12 9 10 16 12 11 15 14 8 22 26 27 4 5 13 11 9 12 14 19 19 17 10 9
21 25 30 12 19 17 14 13 14 16 16 14 8 5 6 6 9 15 6 7 11 9 10 4 7 12 15 9 10 10 14 6 17 24 19 5 4 9 3 2 15 17 19 19 20 19 13
27 24 27 10 19 18 14 13 14 17 17 19 6 4 5 4 10 12 12 10 14 4 7 4 3 14 17 12 12 14 13 11 11 16 20 11 3 2 3 4 10 14 19 22 23 21 23
28 26 24 9 14 20 15 14 15 19 21 15 11 11 3 3 4 5 5 9 16 15 7 6 13 14 16 9 16 22 20 15 10 16 20 12 5 3 3 4 5 9 18 20 18 20 21
26 26 26 21 10 21 17 15 16 21 24 22 9 5 4 5 6 4 5 4 7 15 3 4 12 15 9 6 15 16 11 5 15 6 17 13 4 1 3 2 5 1 3 16 21 18 20
28 27 19 26 8 25 18 16 16 22 22 23 21 8 4 4 3 3 7 3 4 6 2 3 2 7 23 7 10 9 5 3 4 6 4 10 3 3 4 7 6 4 5 7 11 13 15
27 31 23 23 8 19 16 14 14 21 20 21 20 16 7 3 2 1 3 8 3 3 3 3 11 12 5 1 4 4 5 6 5 2 4 5 7 3 1 4 4 3 3 6 5 7 11
29 31 31 25 10 19 14 12 14 21 20 20 14 16 9 4 3 5 3 7 6 3 4 4 2 2 3 2 2 3 3 3 10 12 8 4 5 12 9 2 7 2 6 6 6 1 11
30 30 29 24 16 17 17 13 13 20 20 19 16 15 15 5 5 6 4 5 7 6 4 8 6 1 2 1 2 2 2 4 3 7 11 12 9 5 5 3 9 8 5 6 4 12 17
31 32 29 23 16 18 19 12 15 20 20 18 13 13 14 8 3 3 4 6 10 9 11 14 2 5 7 3 1 4 3 2 3 5 1 5 3 4 7 3 2 2 1 3 12 21 14
Wind_Direction
273 291 293 297 303 294 298 293 294 288 272 269 277 289 268 270 285 290 278 267 259 238 239 244 236 224 213 212 225 188 76 78 224 212 209 214 220 214 215 210 206 225 222 224 239 253 260
263 276 285 291 298 288 286 280 285 288 277 267 264 262 259 259 276 282 277 263 254 243 235 240 232 223 213 233 237 238 235 251 347 207 210 213 216 218 229 222 213 215 229 233 240 246 253
259 269 277 283 295 303 298 274 273 281 279 265 256 257 261 268 277 278 280 265 256 247 237 227 228 227 225 230 225 210 234 241 242 234 218 216 221 222 223 224 221 226 218 228 240 244 248
274 268 272 275 282 290 298 292 275 275 284 273 257 253 255 266 268 274 269 269 254 240 232 225 219 222 239 245 239 235 241 250 238 224 225 216 225 249 247 224 199 215 226 229 224 215 241
268 271 270 271 274 281 288 297 288 277 278 281 264 254 250 252 266 274 262 257 254 231 222 224 219 212 252 234 229 237 229 238 240 219 216 212 213 238 223 221 195 202 215 221 229 207 238
263 264 267 266 267 273 278 285 281 277 265 276 264 254 249 252 269 272 275 245 266 215 206 201 212 203 236 223 228 224 230 223 235 214 200 197 194 231 205 203 202 187 207 220 221 212 214
264 260 265 267 270 269 275 282 289 279 268 271 263 254 249 247 259 277 270 236 170 185 194 189 200 205 144 214 206 218 219 195 213 214 202 195 200 219 200 202 214 208 204 198 204 189 231
266 260 254 267 269 272 275 276 287 288 276 271 264 255 251 246 259 275 251 227 210 191 188 211 213 213 217 169 198 221 197 183 198 201 213 189 214 221 214 188 224 205 205 208 215 186 249
262 256 252 261 267 267 273 280 282 289 282 272 264 254 248 251 258 264 242 251 237 211 177 217 216 213 217 222 222 207 187 199 210 189 224 197 206 218 207 184 202 192 196 189 205 169 244
258 255 252 255 260 266 270 277 282 281 286 274 266 254 246 250 278 252 261 244 241 199 229 196 196 221 212 200 227 219 200 191 231 187 221 209 211 207 192 188 198 190 201 164 156 212 231
261 259 253 248 256 263 270 275 275 278 275 278 272 256 243 236 241 236 249 257 183 173 259 145 159 178 197 191 156 194 194 203 229 154 182 204 213 234 187 189 201 197 163 205 205 259 290
261 259 254 249 252 261 262 268 273 272 269 276 283 261 243 230 241 248 200 160 162 141 243 175 152 182 165 200 211 150 175 202 231 180 214 201 301 204 186 195 192 138 128 91 94 303 246
257 258 254 247 250 260 262 266 272 268 265 270 269 274 242 231 226 234 200 154 171 231 101 176 167 171 171 181 215 179 187 194 205 149 189 236 258 207 176 143 129 160 149 134 191 201 238
250 257 251 246 249 253 258 264 269 266 261 275 268 264 251 238 227 217 167 163 231 171 181 185 165 152 179 167 201 195 198 202 206 284 159 179 208 181 174 166 173 178 178 188 172 189 172
266 249 254 249 253 257 264 268 262 260 260 273 257 255 244 228 215 202 158 210 228 185 159 177 162 160 169 181 178 197 208 204 197 243 143 180 282 152 145 124 139 185 188 63 115 61 235
309 246 254 254 249 250 262 267 258 258 252 265 266 278 258 213 189 164 147 250 231 172 208 170 168 190 173 178 154 195 185 197 211 229 239 160 179 141 103 96 346 183 155 173 205 198 223
284 306 241 253 250 246 265 265 254 248 248 247 274 226 207 184 176 160 228 230 235 213 196 186 167 181 174 176 163 196 186 171 195 212 217 204 231 354 145 195 177 155 152 227 240 278 229
301 316 244 245 248 243 261 262 245 242 240 245 195 227 185 167 161 205 216 207 236 228 197 205 176 176 180 171 171 257 197 202 193 205 183 223 200 139 171 48 198 191 176 186 203 188 244
295 300 320 243 239 241 257 261 240 234 222 201 205 170 188 174 199 215 200 215 221 186 197 202 183 182 174 170 168 216 200 208 192 190 197 185 176 138 163 199 40 201 188 206 212 292 202
304 286 323 239 233 236 251 261 235 224 214 201 188 165 153 199 240 260 212 233 222 201 203 207 173 164 160 182 209 194 204 191 191 206 215 194 201 212 196 203 173 195 195 205 207 219 207
324 300 288 240 229 233 246 258 234 219 207 195 207 217 186 203 231 238 244 192 218 178 220 232 173 186 174 165 187 201 192 161 191 203 211 243 235 206 250 182 187 196 193 193 206 219 227
333 298 296 242 222 232 242 260 233 214 203 203 207 197 189 251 218 220 227 200 206 204 164 223 215 191 186 181 186 185 170 178 179 198 205 219 214 171 160 153 206 211 212 206 216 219 232
330 308 301 284 241 224 235 256 233 213 202 205 222 241 228 202 196 189 197 182 202 211 205 217 223 190 197 208 193 177 179 192 178 183 196 198 196 194 178 126 162 237 213 210 217 221 220
319 322 291 325 256 220 234 248 241 218 211 211 212 200 207 256 225 213 152 162 204 180 203 204 224 190 189 149 121 128 119 137 147 144 196 194 169 25 72 61 218 8 13 219 218 225 226
327 322 297 300 251 223 230 241 239 212 213 217 226 228 233 262 249 206 142 138 104 86 182 126 47 143 143 148 126 123 133 73 38 35 124 209 107 120 169 202 306 207 190 168 187 239 216
322 323 303 312 274 214 225 241 235 207 210 217 225 227 240 286 228 99 134 176 153 171 123 65 110 131 135 185 144 138 173 141 170 129 32 80 113 118 124 245 241 53 160 166 163 256 178
326 324 318 280 326 205 227 244 235 205 208 215 222 220 214 238 248 173 182 174 167 113 88 125 146 91 72 27 100 128 145 144 162 170 163 147 174 200 222 249 290 158 146 152 182 75 148
325 323 318 292 309 208 223 245 228 205 205 210 220 218 204 237 272 216 203 151 162 162 149 151 143 33 65 86 119 140 173 183 155 151 169 177 174 178 171 144 255 147 120 206 108 131 139
325 322 313 299 310 204 218 243 223 205 201 208 217 216 217 237 273 212 184 179 185 178 148 171 121 161 158 105 192 125 173 211 156 171 175 183 236 182 206 203 38 186 334 163 152 142 139
Height
1506 1506 1503 1501 1499 1497 1495 1493 1493 1492 1491 1491 1490 1489 1487 1488 1488 1488 1489 1489 1490 1492 1493 1494 1495 1496 1499 1501 1500 1500 1500 1499 1501 1504 1508 1515 1516 1514 1510 1511 1513 1514 1511 1514 1515 1515 1517
1501 1501 1500 1498 1495 1494 1491 1491 1489 1489 1488 1487 1487 1486 1485 1485 1485 1486 1487 1488 1489 1490 1491 1492 1493 1494 1496 1497 1496 1497 1499 1499 1500 1503 1506 1511 1511 1511 1508 1506 1507 1508 1510 1509 1510 1512 1513
1495 1495 1496 1494 1492 1490 1488 1487 1486 1485 1484 1483 1484 1484 1483 1482 1483 1484 1484 1486 1487 1488 1489 1489 1491 1493 1493 1492 1492 1493 1494 1496 1498 1500 1503 1506 1510 1511 1506 1505 1505 1505 1507 1506 1505 1508 1508
1490 1490 1490 1490 1488 1486 1485 1483 1482 1481 1480 1480 1480 1480 1479 1479 1479 1481 1481 1483 1485 1486 1487 1487 1489 1491 1488 1485 1487 1489 1491 1492 1494 1497 1498 1503 1508 1508 1503 1500 1499 1502 1504 1501 1497 1502 1504
1485 1486 1485 1485 1484 1482 1480 1479 1478 1476 1476 1476 1476 1475 1476 1476 1477 1478 1478 1479 1481 1483 1485 1486 1489 1490 1485 1480 1480 1483 1487 1490 1490 1493 1496 1498 1505 1502 1502 1499 1497 1492 1492 1495 1494 1498 1499
1479 1480 1480 1480 1479 1477 1476 1475 1473 1472 1472 1472 1472 1471 1472 1473 1474 1474 1474 1476 1477 1479 1482 1484 1486 1491 1480 1476 1477 1478 1481 1486 1488 1491 1493 1494 1500 1494 1492 1491 1483 1486 1489 1484 1491 1490 1496
1474 1473 1474 1475 1474 1472 1471 1470 1468 1467 1466 1467 1467 1467 1467 1469 1470 1470 1470 1473 1475 1476 1473 1471 1473 1472 1471 1473 1475 1476 1478 1482 1484 1486 1484 1485 1493 1480 1476 1480 1476 1476 1478 1485 1485 1488 1493
1468 1467 1466 1470 1469 1467 1466 1465 1464 1462 1461 1462 1462 1463 1463 1464 1465 1465 1464 1464 1463 1464 1467 1467 1469 1471 1471 1470 1472 1473 1476 1478 1480 1476 1480 1479 1479 1475 1472 1477 1477 1474 1481 1483 1479 1489 1491
1462 1462 1461 1463 1464 1463 1461 1460 1459 1458 1457 1457 1458 1458 1459 1460 1461 1459 1457 1457 1459 1460 1463 1461 1461 1464 1468 1471 1468 1468 1471 1472 1471 1472 1471 1470 1469 1469 1473 1470 1474 1474 1480 1478 1480 1488 1490
1456 1456 1456 1456 1457 1457 1456 1455 1454 1454 1453 1453 1454 1454 1455 1457 1458 1453 1452 1451 1453 1457 1459 1456 1455 1456 1461 1465 1464 1464 1466 1469 1466 1467 1470 1466 1465 1466 1464 1465 1469 1473 1472 1477 1485 1491 1485
1450 1449 1450 1450 1450 1451 1451 1450 1449 1449 1448 1448 1449 1449 1450 1451 1452 1450 1451 1450 1451 1457 1444 1444 1449 1452 1453 1457 1454 1457 1461 1466 1459 1462 1468 1462 1460 1462 1462 1460 1464 1467 1473 1477 1484 1488 1488
1442 1443 1444 1444 1443 1444 1445 1444 1444 1444 1444 1443 1444 1444 1445 1447 1448 1448 1447 1450 1454 1457 1438 1440 1442 1445 1449 1451 1451 1453 1458 1462 1460 1456 1461 1452 1457 1461 1450 1459 1462 1469 1475 1483 1485 1489 1488
1434 1435 1436 1437 1438 1438 1439 1439 1439 1439 1439 1438 1439 1438 1439 1442 1444 1444 1444 1449 1452 1438 1438 1436 1436 1439 1441 1444 1448 1450 1451 1455 1456 1454 1460 1462 1463 1452 1447 1460 1467 1464 1474 1496 1499 1498 1478
1423 1428 1429 1430 1431 1432 1433 1433 1433 1433 1434 1433 1433 1432 1432 1436 1438 1440 1441 1447 1433 1425 1430 1433 1433 1438 1438 1438 1441 1446 1446 1449 1452 1450 1446 1458 1447 1445 1443 1451 1465 1463 1462 1463 1473 1473 1465
1414 1420 1422 1423 1424 1425 1426 1427 1427 1428 1428 1428 1428 1427 1427 1429 1432 1434 1438 1435 1419 1421 1427 1430 1430 1434 1431 1435 1435 1443 1439 1442 1448 1450 1447 1456 1453 1443 1443 1450 1454 1472 1473 1461 1467 1473 1466
1406 1411 1414 1416 1418 1419 1420 1421 1421 1422 1422 1423 1422 1422 1420 1422 1428 1431 1436 1424 1422 1420 1424 1420 1417 1419 1420 1427 1436 1439 1436 1434 1442 1445 1444 1444 1451 1446 1451 1454 1463 1457 1462 1476 1468 1472 1470
1402 1401 1405 1408 1411 1412 1414 1415 1416 1417 1417 1418 1419 1419 1416 1419 1426 1431 1426 1422 1416 1415 1417 1413 1411 1415 1414 1419 1434 1428 1429 1427 1436 1435 1442 1437 1432 1454 1448 1455 1456 1459 1468 1467 1459 1462 1451
1395 1394 1398 1401 1404 1406 1407 1409 1410 1412 1413 1414 1416 1415 1413 1416 1423 1424 1418 1417 1415 1408 1412 1409 1408 1408 1411 1416 1431 1435 1422 1423 1428 1432 1437 1436 1424 1450 1450 1449 1447 1448 1451 1457 1458 1468 1462
1391 1389 1390 1395 1398 1400 1401 1403 1404 1406 1408 1410 1412 1410 1411 1413 1411 1412 1409 1408 1410 1406 1406 1404 1404 1405 1407 1414 1428 1430 1422 1421 1425 1430 1428 1428 1427 1440 1454 1456 1453 1452 1451 1450 1447 1454 1453
1385 1384 1382 1388 1391 1393 1395 1397 1399 1401 1403 1406 1408 1405 1409 1411 1404 1402 1401 1402 1399 1400 1400 1397 1396 1401 1406 1412 1411 1416 1417 1420 1424 1427 1428 1430 1424 1419 1428 1428 1432 1443 1445 1445 1447 1450 1447
1381 1378 1379 1380 1384 1387 1389 1391 1393 1396 1398 1402 1402 1397 1397 1399 1400 1398 1398 1394 1394 1392 1395 1394 1395 1394 1396 1406 1412 1410 1412 1420 1422 1424 1429 1431 1424 1424 1426 1426 1426 1431 1438 1442 1442 1441 1442
1375 1373 1373 1373 1376 1381 1383 1385 1388 1390 1393 1396 1395 1394 1395 1391 1391 1390 1390 1385 1389 1387 1391 1392 1393 1391 1391 1393 1397 1401 1407 1410 1414 1422 1425 1428 1427 1427 1429 1432 1429 1431 1430 1432 1433 1434 1432
1372 1368 1366 1366 1369 1375 1377 1380 1382 1385 1387 1388 1390 1389 1391 1383 1383 1384 1382 1380 1381 1386 1388 1389 1390 1389 1391 1392 1395 1395 1404 1406 1406 1411 1419 1424 1425 1426 1425 1432 1433 1435 1425 1428 1427 1427 1428
1369 1365 1364 1362 1363 1368 1372 1375 1376 1379 1381 1384 1385 1387 1388 1378 1377 1376 1376 1377 1378 1379 1382 1385 1386 1386 1390 1392 1395 1400 1406 1409 1408 1413 1415 1422 1426 1430 1437 1435 1439 1411 1418 1414 1419 1418 1422
1366 1361 1358 1357 1358 1362 1367 1369 1371 1373 1376 1379 1382 1385 1384 1377 1374 1374 1376 1377 1378 1382 1383 1384 1385 1386 1389 1392 1394 1402 1410 1418 1419 1422 1421 1422 1431 1438 1436 1444 1419 1416 1419 1419 1419 1413 1418
1365 1358 1354 1353 1353 1356 1361 1363 1366 1368 1372 1375 1377 1380 1383 1380 1370 1373 1374 1377 1377 1381 1382 1385 1387 1389 1390 1391 1389 1401 1408 1409 1423 1426 1427 1427 1430 1438 1445 1434 1421 1410 1413 1415 1416 1413 1413
1358 1354 1351 1349 1348 1351 1356 1359 1361 1364 1368 1371 1373 1376 1380 1377 1372 1372 1371 1373 1375 1378 1381 1386 1387 1389 1389 1390 1394 1398 1398 1401 1408 1413 1424 1429 1432 1434 1428 1429 1413 1410 1413 1417 1417 1412 1417
1355 1351 1347 1345 1342 1346 1351 1355 1356 1360 1363 1367 1369 1372 1376 1373 1371 1371 1371 1371 1373 1375 1377 1383 1387 1391 1395 1393 1392 1400 1400 1400 1399 1401 1404 1414 1419 1422 1430 1436 1435 1413 1418 1415 1413 1418 1420
1350 1345 1340 1340 1338 1340 1347 1350 1353 1356 1360 1364 1366 1369 1371 1373 1371 1369 1369 1369 1370 1372 1373 1378 1379 1383 1387 1394 1394 1399 1401 1403 1395 1398 1410 1406 1401 1403 1406 1407 1414 1414 1413 1412 1414 1415 1423